Weather History for El Arish, Egypt

Change the Weather History Date:

Friday, April 11, 2014

  Actual Average Record
Temperature  
Mean Temperature 60 °F -  
Max Temperature 72 °F 79 °F - ()
Min Temperature 47 °F 55 °F - ()
Degree Days  
Heating Degree Days 6    
Growing Degree Days 10 (Base 50)    
Moisture  
Dew Point 51 °F    
Average Humidity 75    
Maximum Humidity 100    
Minimum Humidity 26    
Precipitation  
Precipitation 0.00 in 0.01 in - ()
Sea Level Pressure  
Sea Level Pressure 30.06 in    
Wind  
Wind Speed 4 mph ()    
Max Wind Speed 12 mph    
Max Gust Speed -    
Visibility 4.9 miles    
Events      
T = Trace of Precipitation, MM = Missing Value Source: Averaged Metar Reports

Daily Weather History Graph

Daily Weather History Graph

Search for Another Location

Airport:

Trip Planner

Search our weather history database for the weather conditions in past years. The results will help you decide how hot, cold, wet, or windy it might be!

Date:

Astronomy

Apr. 11, 2014 Rise Set
Actual Time 5:21 AM EET 6:10 PM EET
Civil Twilight 4:57 AM EET 6:34 PM EET
Nautical Twilight 4:28 AM EET 7:03 PM EET
Astronomical Twilight 3:58 AM EET 7:33 PM EET
Moon 2:44 PM EET (4/11) 2:50 AM EET (4/11)
Length of Visible Light 13h 37m
Length of Day
12h 48m
Waxing Gibbous, 85% of the Moon is Illuminated
Apr 11
Waxing Gibbous
Apr 15
Full
Apr 22
Last Quarter
Apr 29
New
May 7
First Quarter

Hourly Weather History & Observations

Time (EET) Temp. Dew Point Humidity Pressure Visibility Wind Dir Wind Speed Gust Speed Precip Events Conditions
12:00 AM 51.8 °F 50.0 °F 94% 30.06 in - SSE 2.3 mph - N/A   Clear
1:00 AM 50.0 °F 48.2 °F 94% 30.06 in - SSE 2.3 mph - N/A   Clear
2:00 AM 51 °F 49 °F 92% 30.07 in 4 mi SSE 5.8 mph - -   Mist
2:00 AM 50.0 °F 50.0 °F 100% 30.06 in 3.7 mi SSE 5.8 mph - N/A   Unknown
3:00 AM 50.0 °F 50.0 °F 100% 30.04 in 3.7 mi SSE 4.6 mph - N/A   Unknown
5:00 AM 50 °F 49 °F 97% 30.06 in 4 mi SSE 3.5 mph - -   Mist
5:00 AM 50.0 °F 50.0 °F 100% 30.06 in 3.7 mi SSE 3.5 mph - N/A   Unknown
6:00 AM 48.2 °F 48.2 °F 100% 30.06 in 3.7 mi SSE 4.6 mph - N/A   Unknown
7:00 AM 57.2 °F 51.8 °F 82% 30.06 in 3.7 mi SSE 4.6 mph - N/A   Unknown
8:00 AM 65 °F 51 °F 50% 30.10 in 6 mi East 5.8 mph - -  
8:00 AM 64.4 °F 50.0 °F 59% 30.09 in - East 5.8 mph - N/A   Clear
9:00 AM 68.0 °F 48.2 °F 49% 30.09 in - ESE 4.6 mph - N/A   Clear
10:00 AM 71.6 °F 48.2 °F 43% 30.06 in - NNE 9.2 mph - N/A   Clear
11:00 AM 71 °F 43 °F 26% 30.09 in 6 mi NE 9.2 mph - -   Clear
11:00 AM 71.6 °F 42.8 °F 35% 30.06 in - NE 9.2 mph - N/A   Clear
12:00 PM 71.6 °F 46.4 °F 41% 30.06 in - North 11.5 mph - N/A   Clear
6:00 PM 64.4 °F 53.6 °F 68% 30.01 in - North 10.4 mph - N/A   Clear
7:00 PM 64.4 °F 55.4 °F 73% 30.01 in - North 8.1 mph - N/A   Clear
8:00 PM 64 °F 57 °F 71% 30.05 in 6 mi North 4.6 mph - -   Scattered Clouds
8:00 PM 62.6 °F 55.4 °F 77% 30.04 in - North 4.6 mph - N/A   Clear
9:00 PM 62.6 °F 57.2 °F 82% 30.04 in 6.2 mi North 4.6 mph - N/A   Scattered Clouds
10:00 PM 62.6 °F 57.2 °F 82% 30.04 in 6.2 mi North 2.3 mph - N/A   Scattered Clouds
11:00 PM 59 °F 56 °F 85% 30.04 in 6 mi North 2.3 mph - -   Partly Cloudy
11:00 PM 59.0 °F 55.4 °F 88% 30.04 in 6.2 mi North 2.3 mph - N/A   Scattered Clouds